• In Latvia
  • List of Countries
  • For 7 days
  • Water Temperature
  • Satellite Maps
  • Weather Map
  • Weather Widgets
  • user-avatar
    Login

    Hourly Weather Ganja

    Today, 26 May, Friday

    Time Temperature Precipitation Wind Pressure Humidity
    00:00 +14°C° 0 mm 1 mps 726 mmHg 72%
    01:00 +14°C° 0 mm 1 mps 726 mmHg 76%
    02:00 +13°C° 0 mm 1 mps 726 mmHg 81%
    03:00 +13°C° 0 mm 1 mps 726 mmHg 85%
    04:00 +14°C° 0 mm 1 mps 726 mmHg 84%
    05:00 +14°C° 0 mm 0 mps 726 mmHg 82%
    06:00 +15°C° 0 mm 0 mps 726 mmHg 80%
    07:00 +18°C° 0 mm 1 mps 726 mmHg 74%
    08:00 +20°C° 0 mm 1 mps 726 mmHg 67%
    09:00 +21°C° 0 mm 1 mps 726 mmHg 61%
    10:00 +21°C° 0 mm 2 mps 726 mmHg 57%
    11:00 +23°C° 0 mm 2 mps 725 mmHg 54%
    12:00 +24°C° 0 mm 2 mps 725 mmHg 50%
    13:00 +25°C° 0 mm 2 mps 725 mmHg 50%
    14:00 +25°C° 0 mm 2 mps 724 mmHg 49%
    15:00 +26°C° 0 mm 2 mps 724 mmHg 49%
    16:00 +25°C° 0.2 mm 2 mps 724 mmHg 52%
    17:00 +24°C° 0.2 mm 2 mps 724 mmHg 56%
    18:00 +24°C° 0.2 mm 2 mps 724 mmHg 60%
    19:00 +21°C° 0.2 mm 2 mps 724 mmHg 65%
    20:00 +20°C° 0.2 mm 2 mps 724 mmHg 70%
    21:00 +18°C° 0.2 mm 2 mps 724 mmHg 75%
    22:00 +17°C° 0.1 mm 2 mps 724 mmHg 77%
    23:00 +17°C° 0.1 mm 2 mps 724 mmHg 78%

    Tomorrow, 27 May, Saturday

    Time Temperature Precipitation Wind Pressure Humidity
    00:00 +16°C° 0.1 mm 2 mps 724 mmHg 80%
    01:00 +16°C° 0 mm 1 mps 724 mmHg 82%
    02:00 +15°C° 0 mm 1 mps 724 mmHg 84%
    03:00 +15°C° 0 mm 1 mps 724 mmHg 86%
    04:00 +16°C° 0 mm 1 mps 724 mmHg 85%
    05:00 +18°C° 0 mm 1 mps 724 mmHg 83%
    06:00 +18°C° 0 mm 1 mps 724 mmHg 82%
    07:00 +20°C° 0 mm 1 mps 724 mmHg 75%
    08:00 +21°C° 0 mm 1 mps 723 mmHg 69%
    09:00 +23°C° 0 mm 2 mps 723 mmHg 62%
    10:00 +24°C° 0.3 mm 2 mps 723 mmHg 58%
    11:00 +25°C° 0.3 mm 2 mps 722 mmHg 53%
    12:00 +26°C° 0.3 mm 2 mps 722 mmHg 49%
    13:00 +26°C° 0.4 mm 2 mps 721 mmHg 48%
    14:00 +27°C° 0.4 mm 2 mps 721 mmHg 46%
    15:00 +27°C° 0.4 mm 2 mps 720 mmHg 45%
    16:00 +27°C° 0.3 mm 1 mps 720 mmHg 48%
    17:00 +26°C° 0.3 mm 1 mps 720 mmHg 51%
    18:00 +25°C° 0.3 mm 1 mps 720 mmHg 55%
    19:00 +23°C° 0.2 mm 1 mps 720 mmHg 61%
    20:00 +21°C° 0.2 mm 1 mps 721 mmHg 67%
    21:00 +18°C° 0.2 mm 1 mps 721 mmHg 73%
    22:00 +18°C° 0.1 mm 1 mps 721 mmHg 73%
    23:00 +18°C° 0.1 mm 1 mps 722 mmHg 74%

    Day after tomorrow, 28 May, Sunday

    Time Temperature Precipitation Wind Pressure Humidity
    00:00 +18°C° 0.1 mm 1 mps 722 mmHg 75%
    01:00 +18°C° 0 mm 1 mps 722 mmHg 74%
    02:00 +16°C° 0 mm 2 mps 722 mmHg 73%
    03:00 +16°C° 0 mm 2 mps 722 mmHg 72%
    04:00 +17°C° 0 mm 3 mps 722 mmHg 70%
    05:00 +17°C° 0 mm 3 mps 723 mmHg 68%
    06:00 +18°C° 0 mm 3 mps 723 mmHg 66%
    07:00 +20°C° 0 mm 3 mps 723 mmHg 59%
    08:00 +22°C° 0 mm 3 mps 723 mmHg 52%
    09:00 +25°C° 0 mm 3 mps 723 mmHg 46%
    10:00 +26°C° 0 mm 3 mps 723 mmHg 43%
    11:00 +27°C° 0 mm 3 mps 722 mmHg 41%
    12:00 +28°C° 0 mm 2 mps 722 mmHg 39%
    13:00 +29°C° 0.1 mm 2 mps 722 mmHg 38%
    14:00 +29°C° 0.1 mm 2 mps 721 mmHg 37%
    15:00 +30°C° 0.1 mm 2 mps 721 mmHg 36%
    16:00 +29°C° 0.3 mm 2 mps 721 mmHg 40%
    17:00 +28°C° 0.3 mm 2 mps 721 mmHg 45%
    18:00 +27°C° 0.3 mm 2 mps 722 mmHg 49%
    19:00 +24°C° 0.8 mm 2 mps 722 mmHg 55%
    20:00 +22°C° 0.8 mm 1 mps 723 mmHg 61%
    21:00 +19°C° 0.8 mm 1 mps 723 mmHg 67%
    22:00 +19°C° 0.3 mm 1 mps 724 mmHg 69%
    23:00 +17°C° 0.3 mm 2 mps 724 mmHg 71%

    29 May, Monday

    Time Temperature Precipitation Wind Pressure Humidity
    00:00 +17°C° 0.3 mm 2 mps 724 mmHg 72%
    01:00 +16°C° 0 mm 2 mps 724 mmHg 73%
    02:00 +16°C° 0 mm 2 mps 724 mmHg 73%
    03:00 +16°C° 0 mm 3 mps 725 mmHg 74%
    04:00 +16°C° 0 mm 3 mps 725 mmHg 72%
    05:00 +17°C° 0 mm 3 mps 725 mmHg 71%
    06:00 +18°C° 0 mm 3 mps 726 mmHg 69%
    07:00 +20°C° 0 mm 3 mps 726 mmHg 62%
    08:00 +22°C° 0 mm 3 mps 726 mmHg 54%
    09:00 +24°C° 0 mm 3 mps 726 mmHg 47%
    10:00 +25°C° 0 mm 3 mps 726 mmHg 45%
    11:00 +26°C° 0 mm 2 mps 726 mmHg 44%
    12:00 +27°C° 0 mm 1 mps 726 mmHg 42%
    13:00 +27°C° 0.3 mm 2 mps 726 mmHg 43%
    14:00 +28°C° 0.3 mm 3 mps 726 mmHg 43%
    15:00 +28°C° 0.3 mm 3 mps 726 mmHg 43%
    16:00 +27°C° 0.3 mm 4 mps 726 mmHg 48%
    17:00 +26°C° 0.3 mm 5 mps 727 mmHg 54%
    18:00 +23°C° 0.3 mm 6 mps 727 mmHg 59%
    19:00 +21°C° 0.2 mm 6 mps 728 mmHg 64%
    20:00 +18°C° 0.2 mm 7 mps 728 mmHg 69%
    21:00 +16°C° 0.2 mm 7 mps 729 mmHg 75%
    22:00 +15°C° 0 mm 6 mps 729 mmHg 76%
    23:00 +15°C° 0 mm 6 mps 729 mmHg 78%

    30 May, Tuesday

    Time Temperature Precipitation Wind Pressure Humidity
    00:00 +14°C° 0 mm 5 mps 729 mmHg 79%
    01:00 +14°C° 0 mm 5 mps 729 mmHg 79%
    02:00 +14°C° 0 mm 4 mps 729 mmHg 80%
    03:00 +13°C° 0 mm 3 mps 729 mmHg 80%
    04:00 +13°C° 0 mm 3 mps 729 mmHg 79%
    05:00 +15°C° 0 mm 2 mps 729 mmHg 78%
    06:00 +15°C° 0 mm 2 mps 729 mmHg 77%
    07:00 +16°C° 0 mm 2 mps 728 mmHg 72%
    08:00 +18°C° 0 mm 2 mps 728 mmHg 68%
    09:00 +19°C° 0 mm 2 mps 728 mmHg 64%
    10:00 +20°C° 0 mm 2 mps 727 mmHg 59%
    11:00 +21°C° 0 mm 2 mps 727 mmHg 55%
    12:00 +24°C° 0 mm 2 mps 726 mmHg 51%
    13:00 +24°C° 0 mm 1 mps 726 mmHg 50%
    14:00 +25°C° 0 mm 1 mps 725 mmHg 48%
    15:00 +26°C° 0 mm 1 mps 725 mmHg 46%
    16:00 +26°C° 0 mm 1 mps 725 mmHg 49%
    17:00 +25°C° 0 mm 1 mps 725 mmHg 51%
    18:00 +25°C° 0 mm 1 mps 725 mmHg 53%
    19:00 +23°C° 0 mm 1 mps 725 mmHg 60%
    20:00 +21°C° 0 mm 1 mps 725 mmHg 66%
    21:00 +18°C° 0 mm 1 mps 725 mmHg 73%
    22:00 +18°C° 0 mm 1 mps 725 mmHg 74%
    23:00 +18°C° 0 mm 1 mps 725 mmHg 74%

    31 May, Wednesday

    Time Temperature Precipitation Wind Pressure Humidity
    00:00 +16°C° 0 mm 1 mps 725 mmHg 75%
    01:00 +16°C° 0 mm 1 mps 725 mmHg 75%
    02:00 +16°C° 0 mm 1 mps 725 mmHg 75%
    03:00 +16°C° 0 mm 1 mps 724 mmHg 75%
    04:00 +18°C° 0 mm 1 mps 724 mmHg 70%
    05:00 +19°C° 0 mm 1 mps 724 mmHg 66%
    06:00 +20°C° 0 mm 2 mps 724 mmHg 61%
    07:00 +23°C° 0 mm 2 mps 724 mmHg 54%
    08:00 +25°C° 0 mm 2 mps 724 mmHg 47%
    09:00 +27°C° 0 mm 2 mps 724 mmHg 40%
    10:00 +28°C° 0 mm 2 mps 723 mmHg 38%
    11:00 +29°C° 0 mm 2 mps 723 mmHg 36%
    12:00 +30°C° 0 mm 2 mps 722 mmHg 34%
    13:00 +31°C° 0 mm 2 mps 722 mmHg 34%
    14:00 +31°C° 0 mm 2 mps 721 mmHg 34%
    15:00 +31°C° 0 mm 2 mps 721 mmHg 33%
    16:00 +30°C° 0.1 mm 2 mps 721 mmHg 38%
    17:00 +30°C° 0.1 mm 2 mps 721 mmHg 42%
    18:00 +29°C° 0.1 mm 2 mps 721 mmHg 46%
    19:00 +26°C° 0.2 mm 2 mps 721 mmHg 51%
    20:00 +24°C° 0.2 mm 2 mps 721 mmHg 55%
    21:00 +21°C° 0.2 mm 2 mps 721 mmHg 60%
    22:00 +20°C° 0.2 mm 2 mps 720 mmHg 64%
    23:00 +20°C° 0.2 mm 2 mps 720 mmHg 68%
    Show more